Regional Weather Roundup
Issued by NWS

Home | Current Version | Previous Version | Text Only | Print | Product List | Glossary Off
Versions: 1 2 3 4 5 6 7 8 9 10 11 12 13 14 15 16 17 18 19 20 21 22 23 24 25 26 27 28 29 30 31 32 33 34 35 36 37 38 39 40 41 42 43 44 45 46 47 48 49 50

000
ASUS43 KFSD 211010
RWRSD

WEATHER ROUNDUP FOR SOUTH DAKOTA
NATIONAL WEATHER SERVICE SIOUX FALLS SD
500 AM CDT TUE OCT 21 2014

NOTE: "FAIR" INDICATES FEW OR NO CLOUDS BELOW 12,000 FEET WITH NO
SIGNIFICANT WEATHER AND/OR OBSTRUCTIONS TO VISIBILITY.


SDZ001>005-009-010-012>017-211100-
NORTHWEST AND NORTH CENTRAL SOUTH DAKOTA

CITY           SKY/WX    TMP DP  RH WIND       PRES   REMARKS
BUFFALO          N/A     49  40  71 CALM      29.74F
FAITH            N/A     47  39  74 S18       29.80F
MOBRIDGE       CLEAR     55  40  56 SE12      29.84F
$$

SDZ012>016-024>037-041>051-057-063-072>074-211100-
SOUTHWEST AND SOUTH CENTRAL SOUTH DAKOTA

CITY           SKY/WX    TMP DP  RH WIND       PRES   REMARKS
RAPID CTY ARPT CLEAR     49  40  71 SE5       29.85S
PIERRE         CLEAR     53  39  59 SE14      29.88F
CUSTER         CLEAR     52  34  50 W7        29.98F
ELLSWORTH AFB  CLEAR     53  40  63 S3        29.84S
PHILIP         CLEAR     48  39  71 CALM      29.84F
PINE RIDGE     CLEAR     59  42  53 S18G26    29.91F
SPEARFISH      FAIR      55  36  47 E3        29.86F
WINNER         FAIR      60  40  47 S21G30    29.92F
$$

SDZ004>011-016>023-039-040-211100-
NORTHEAST SOUTH DAKOTA

CITY           SKY/WX    TMP DP  RH WIND       PRES   REMARKS
ABERDEEN       CLEAR     46  39  76 SE8       29.98F
WATERTOWN      CLEAR     45  37  73 SE8       30.05S
SISSETON         N/A     39  37  92 S8        30.06S
$$

SDZ017-020-022-023-036>040-048>070-211100-
SOUTHEAST SOUTH DAKOTA

CITY           SKY/WX    TMP DP  RH WIND       PRES   REMARKS
SIOUX FALLS    CLEAR     42  36  79 CALM      30.08R
HURON          CLEAR     47  36  65 SE13      30.00F
CHAMBERLAIN    CLEAR     47  37  68 SE9       29.95F
MITCHELL       CLEAR     47  37  68 SE9       30.03S
YANKTON        CLEAR     41  36  81 E7        30.07R
$$

ABBREVIATIONS USED IN REMARKS
   TC - TEMPERATURE IN CELSIUS
  WCI - WIND CHILL INDEX
   HX - HEAT INDEX
  VSB - VISIBILITY




USA.gov is the U.S. government's official web portal to all federal, state and local government web resources and services.